Glens Falls, NY

9:50 AM EST on November 17, 2019 (GMT -0500)
Bennett Memorial

Weather History for KGFL - October, 2019

Change the Weather History Date:

Wednesday, October 23, 2019

  Actual Average Record
Temperature  
Mean Temperature 49 °F 44 °F  
Max Temperature 62 °F 56 °F 81 °F (1947)
Min Temperature 36 °F 33 °F 20 °F (1982)
Degree Days  
Heating Degree Days 16 21  
Month to date heating degree days 367 393  
Since 1 July heating degree days 589 678  
Cooling Degree Days 0 0  
Month to date cooling degree days 0 0  
Year to date cooling degree days 416 351  
Growing Degree Days 2 (Base 50)    
Moisture  
Dew Point 47 °F    
Average Humidity 68    
Maximum Humidity 100    
Minimum Humidity 36    
Precipitation  
Precipitation 0.20 in 0.11 in 1.89 in (1912)
Month to date precipitation 5.35 2.62  
Year to date precipitation 36.20 31.81  
Sea Level Pressure  
Sea Level Pressure 29.87 in    
Wind  
Wind Speed 5 mph (WSW)    
Max Wind Speed 18 mph    
Max Gust Speed 25 mph    
Visibility 6 miles    
Events Fog , Rain    
T = Trace of Precipitation, MM = Missing Value Source: NWS Daily Summary

Daily Weather History Graph

Daily Weather History Graph

Search for Another Location

Airport or City:

Astronomy

Oct. 23, 2019 Rise Set
Actual Time 7:17 AM EDT 5:59 PM EDT
Civil Twilight 6:48 AM EDT 6:28 PM EDT
Nautical Twilight 6:15 AM EDT 7:01 PM EDT
Astronomical Twilight 5:42 AM EDT 7:34 PM EDT
Moon 1:20 AM EDT (10/23) 3:59 PM EDT (10/23)
Length of Visible Light 11h 39m
Length of Day
10h 41m
Waning Crescent, 27% of the Moon is Illuminated
Oct 23
Waning Crescent
Oct 27
New
Nov 4
First Quarter
Nov 12
Full
Nov 19
Last Quarter

Hourly Weather History & Observations

Time (EDT) Temp. Windchill Dew Point Humidity Pressure Visibility Wind Dir Wind Speed Gust Speed Precip Events Conditions
12:22 AM 53.1 °F - 52.0 °F 96% 29.80 in 5.0 mi West 8.1 mph - 0.00 in Rain Light Rain
12:34 AM 53.1 °F - 52.0 °F 96% 29.80 in 2.0 mi West 5.8 mph - 0.03 in Rain Rain
12:53 AM 53.1 °F - 52.0 °F 96% 29.82 in 2.0 mi West 8.1 mph - 0.09 in Rain Rain
12:56 AM 54.0 °F - 52.0 °F 93% 29.81 in 1.8 mi West 6.9 mph - 0.01 in Rain Heavy Rain
1:15 AM 54.0 °F - 53.1 °F 97% 29.81 in 2.5 mi Calm Calm - 0.07 in Rain Light Rain
1:25 AM 54.0 °F - 52.0 °F 93% 29.81 in 2.5 mi Calm Calm - 0.10 in Rain Rain
1:53 AM 53.1 °F - 53.1 °F 100% 29.81 in 2.5 mi SSE 3.5 mph - 0.20 in Rain Light Rain
1:58 AM 53.1 °F - 52.0 °F 96% 29.81 in 2.5 mi Calm Calm - 0.01 in Rain Light Rain
2:11 AM 53.1 °F - 52.0 °F 96% 29.81 in 5.0 mi South 3.5 mph - 0.01 in Rain Light Rain
2:28 AM 53.1 °F - 52.0 °F 96% 29.81 in 10.0 mi SSE 3.5 mph - 0.02 in Rain Light Rain
2:48 AM 53.6 °F - 51.8 °F 94% 29.80 in 10.0 mi East 3.5 mph - 0.02 in   Overcast
2:53 AM 53.1 °F - 52.0 °F 96% 29.81 in 10.0 mi Calm Calm - 0.02 in   Overcast
3:48 AM 53.6 °F - 51.8 °F 94% 29.81 in 10.0 mi SSW 3.5 mph - N/A   Overcast
3:53 AM 53.1 °F - 52.0 °F 96% 29.81 in 10.0 mi SSW 3.5 mph - N/A   Overcast
4:53 AM 53.1 °F - 52.0 °F 96% 29.83 in 10.0 mi SW 3.5 mph - 0.00 in Rain Light Rain
5:19 AM 53.1 °F - 51.1 °F 93% 29.82 in 10.0 mi Calm Calm - 0.00 in Rain Light Rain
5:33 AM 52.0 °F - 51.1 °F 97% 29.82 in 8.0 mi Calm Calm - 0.00 in   Overcast
5:43 AM 52.0 °F - 51.1 °F 97% 29.82 in 7.0 mi Calm Calm - 0.00 in   Overcast
5:53 AM 52.0 °F - 51.1 °F 97% 29.83 in 8.0 mi Calm Calm - 0.00 in   Overcast
6:01 AM 52.0 °F - 51.1 °F 97% 29.82 in 9.0 mi ENE 3.5 mph - N/A   Overcast
6:33 AM 51.1 °F - 51.1 °F 100% 29.82 in 2.5 mi Calm Calm - N/A   Overcast
6:53 AM 52.0 °F - 51.1 °F 97% 29.83 in 2.0 mi Calm Calm - N/A   Overcast
7:00 AM 52.0 °F - 51.1 °F 97% 29.82 in 0.8 mi Calm Calm - N/A   Overcast
7:15 AM 52.0 °F - 51.1 °F 97% 29.83 in 0.2 mi Calm Calm - N/A Fog Fog
7:53 AM 51.1 °F - 51.1 °F 100% 29.85 in 0.2 mi Calm Calm - N/A Fog Fog
8:50 AM 51.8 °F - 51.8 °F 100% 29.85 in 0.5 mi Calm Calm - N/A Fog Fog
8:53 AM 51.1 °F - 51.1 °F 100% 29.86 in 0.2 mi WNW 3.5 mph - N/A Fog Fog
9:05 AM 51.1 °F - 50.0 °F 96% 29.85 in 0.5 mi Calm Calm - N/A Fog Fog
9:12 AM 51.1 °F - 51.1 °F 100% 29.86 in 0.2 mi Calm Calm - N/A Fog Fog
9:26 AM 52.0 °F - 51.1 °F 97% 29.86 in 1.0 mi Calm Calm - N/A   Overcast
9:32 AM 52.0 °F - 51.1 °F 97% 29.86 in 3.0 mi West 3.5 mph - N/A   Overcast
9:53 AM 53.1 °F - 51.1 °F 93% 29.88 in 10.0 mi Calm Calm - N/A   Scattered Clouds
10:53 AM 59.0 °F - 43.0 °F 55% 29.88 in 10.0 mi West 5.8 mph - N/A   Clear
11:53 AM 57.9 °F - 42.1 °F 56% 29.88 in 10.0 mi WNW 6.9 mph - N/A   Overcast
12:53 PM 59.0 °F - 39.0 °F 48% 29.88 in 10.0 mi West 10.4 mph - N/A   Scattered Clouds
2:53 PM 62.1 °F - 36.0 °F 38% 29.89 in 10.0 mi WNW 11.5 mph - N/A   Scattered Clouds
3:53 PM 59.0 °F - 35.1 °F 41% 29.92 in 10.0 mi West 9.2 mph - N/A   Clear
4:53 PM 59.0 °F - 35.1 °F 41% 29.94 in 10.0 mi West 6.9 mph - N/A   Scattered Clouds
5:53 PM 55.9 °F - 34.0 °F 44% 29.96 in 10.0 mi SW 6.9 mph - N/A   Clear
6:53 PM 46.9 °F - 37.9 °F 71% 30.01 in 10.0 mi SW 4.6 mph - N/A   Clear
7:53 PM 45.0 °F 42.6 °F 39.9 °F 82% 30.05 in 10.0 mi SW 4.6 mph - N/A   Clear
8:53 PM 46.0 °F 44.8 °F 37.9 °F 73% 30.07 in 10.0 mi Variable 3.5 mph - N/A   Clear
9:53 PM 48.0 °F - 34.0 °F 58% 30.09 in 10.0 mi South 6.9 mph - N/A   Clear
10:53 PM 42.1 °F 37.7 °F 37.0 °F 82% 30.11 in 10.0 mi SW 6.9 mph - N/A   Clear
11:53 PM 45.0 °F 41.8 °F 34.0 °F 65% 30.12 in 10.0 mi SW 5.8 mph - N/A   Clear